• Join FlightAware (Why Join?)
  • Login
  • US Flag 
10:09PM EDT


 

Airport Tracker/Info


-or-


 

Live Flight TrackerFlight Track Log ✈ SWA2852 ✈ 25-Apr-2013 ✈ KPHX - KSNA

Flight Track Log - Related Links

Times and Time Zones

All times are in EDT time to prevent confusion due to time zone crossing. See the SWA2852 flight status page for this flight to view local times or setup timezone preferences in your user account.

Time Position Orientation Groundspeed Altitude Reporting Facility
EDT Latitude Longitude Course Direction KTS MPH feet Rate Location/Type
12:27AM 33.4333 -112.0333 270° West 158 182 2,200  Level Phoenix TRACON
12:27AM 33.4333 -112.0500 270° West 164 189 2,700 1,680 Climbing Phoenix TRACON
12:28AM 33.4167 -112.1167 253° West 234 269 4,400 2,700 Climbing Phoenix TRACON
12:29AM 33.3833 -112.2000 244° Southwest 276 318 8,200 3,780 Climbing Phoenix TRACON
12:30AM 33.3833 -112.3000 270° West 295 339 12,000 3,840 Climbing Phoenix TRACON
12:31AM 33.4000 -112.4000 281° West 302 348 16,000 3,660 Climbing Phoenix TRACON
12:31AM 33.3967 -112.4164 256° West 299 344 16,800 3,720 Climbing Los Angeles Center
12:32AM 33.4089 -112.5000 280° West 299 344 20,200 2,220 Climbing Albuquerque Center
12:33AM 33.4225 -112.6031 279° West 313 360 21,000 1,080 Climbing Albuquerque Center
12:34AM 33.4381 -112.7144 280° West 353 406 22,400 1,860 Climbing Albuquerque Center
12:35AM 33.4550 -112.8342 280° West 363 418 24,800 2,280 Climbing Albuquerque Center
12:36AM 33.4794 -112.9603 283° West 381 438 27,100 2,280 Climbing Albuquerque Center
12:37AM 33.5039 -113.0872 283° West 390 449 29,400 1,380 Climbing Albuquerque Center
12:38AM 33.5286 -113.2150 283° West 394 453 30,000 240 Climbing Albuquerque Center
12:39AM 33.5564 -113.3678 282° West 393 452 30,000  Level Albuquerque Center
12:40AM 33.5808 -113.4911 283° West 386 444 30,000  Level Albuquerque Center
12:41AM 33.6042 -113.6178 283° West 389 448 30,000  Level Albuquerque Center
12:42AM 33.6250 -113.7314 282° West 387 445 30,000  Level Albuquerque Center
12:43AM 33.6475 -113.8589 282° West 389 448 30,000  Level Albuquerque Center
12:44AM 33.6717 -113.9861 283° West 391 450 30,000  Level Albuquerque Center
12:45AM 33.6944 -114.1131 282° West 390 449 30,000  Level Albuquerque Center
12:46AM 33.7189 -114.2542 282° West 397 457 30,000  Level Albuquerque Center
12:47AM 33.7286 -114.3842 275° West 394 453 30,000  Level Albuquerque Center
12:48AM 33.7336 -114.4428 276° West 396 456 30,000  Level Los Angeles Center
12:49AM 33.7456 -114.6022 275° West 400 460 30,000  Level Los Angeles Center
12:50AM 33.7561 -114.7322 276° West 395 455 30,000  Level Los Angeles Center
12:51AM 33.7653 -114.8636 275° West 396 456 30,000  Level Los Angeles Center
12:52AM 33.7756 -114.9936 275° West 394 453 30,000  Level Los Angeles Center
12:53AM 33.7836 -115.1233 274° West 393 452 30,000 -600 Level Los Angeles Center
12:54AM 33.7928 -115.2511 275° West 387 445 28,900 -1,020 Descending Los Angeles Center
12:55AM 33.8033 -115.4008 275° West 377 434 28,000 -480 Descending Los Angeles Center
12:56AM 33.8131 -115.5297 275° West 387 445 28,000  Level Los Angeles Center
12:57AM 33.8214 -115.6578 275° West 388 447 28,000  Level Los Angeles Center
12:58AM 33.8292 -115.7861 274° West 388 447 28,000  Level Los Angeles Center
12:59AM 33.8381 -115.9167 275° West 394 453 28,000  Level Los Angeles Center
01:00AM 33.8461 -116.0467 274° West 392 451 28,000 -480 Level Los Angeles Center
01:01AM 33.8542 -116.1742 274° West 387 445 27,100 -1,800 Descending Los Angeles Center
01:02AM 33.8617 -116.2914 274° West 361 415 24,400 -2,640 Descending Los Angeles Center
01:03AM 33.8703 -116.4347 274° West 358 412 21,700 -2,460 Descending Los Angeles Center
01:04AM 33.8761 -116.5514 273° West 352 405 19,500 -2,100 Descending Los Angeles Center
01:05AM 33.8817 -116.6703 273° West 355 409 17,500 -2,160 Descending Los Angeles Center
01:06AM 33.8869 -116.7889 273° West 357 411 15,100 -2,160 Descending Los Angeles Center
01:07AM 33.8833 -116.9000 268° West 343 395 13,400 -2,160 Descending Southern California TRACON
01:08AM 33.8667 -117.0167 260° West 365 420 11,000 -1,800 Descending Southern California TRACON
01:09AM 33.8500 -117.1167 259° West 348 400 10,000 -900 Descending Southern California TRACON
01:09AM 33.8428 -117.1408 250° West 352 405 10,000  Level Los Angeles Center
01:10AM 33.8286 -117.2419 260° West 312 359 10,000 -540 Level Los Angeles Center
01:11AM 33.8161 -117.3378 261° West 292 336 9,000 -960 Descending Los Angeles Center
01:12AM 33.8008 -117.4350 259° West 295 339 8,100 -540 Descending Los Angeles Center
01:13AM 33.7903 -117.5203 262° West 268 308 8,000 -540 Descending Los Angeles Center
01:14AM 33.7831 -117.6047 264° West 226 260 7,100 -900 Descending Los Angeles Center
01:15AM 33.7833 -117.6500 270° West 195 224 6,500 -1,080 Descending Southern California TRACON
01:16AM 33.8000 -117.7167 287° West 183 211 5,200 -1,440 Descending Southern California TRACON
01:17AM 33.7833 -117.7833 253° West 190 219 3,700 -1,620 Descending Southern California TRACON
01:18AM 33.7500 -117.8167 220° Southwest 183 211 2,000 -1,440 Descending Southern California TRACON
01:19AM 33.7167 -117.8500 220° Southwest 147 169 700 -960 Descending Southern California TRACON
01:20AM 33.6833 -117.8667 203° Southwest 138 159 200 -600 Descending Southern California TRACON
01:23AM 33.6757 -117.8682 132° Southeast  Level Estimated